| time (UTC) | temp F | wind direction | speed MPH | gust MPH | rain 1hr in | rain 24hr in | rain mn in | humidity % | barometer mb |
| 20260506204532 | 73 | 169 | 6.0 | 22.0 | 0.00 | 0.00 | 0.00 | 46 | 1014.5 |
| 20260506204021 | 73 | 15 | 2.0 | 11.0 | 0.00 | 0.00 | 0.00 | 46 | 1014.6 |
| 20260506203531 | 72 | 29 | 4.0 | 10.0 | 0.00 | 0.00 | 0.00 | 46 | 1014.7 |
| 20260506203025 | 72 | 205 | 3.0 | 14.0 | 0.00 | 0.00 | 0.00 | 49 | 1014.8 |
| 20260506202539 | 71 | 178 | 9.0 | 16.0 | 0.00 | 0.00 | 0.00 | 49 | 1014.9 |
| 20260506202029 | 72 | 128 | 8.0 | 16.0 | 0.00 | 0.00 | 0.00 | 48 | 1014.6 |
| 20260506201529 | 71 | 171 | 9.0 | 14.0 | 0.00 | 0.00 | 0.00 | 49 | 1014.8 |
| 20260506201038 | 71 | 211 | 6.0 | 13.0 | 0.00 | 0.00 | 0.00 | 50 | 1014.8 |
| 20260506200523 | 72 | 194 | 8.0 | 13.0 | 0.00 | 0.00 | 0.00 | 47 | 1014.9 |
| 20260506200018 | 73 | 217 | 3.0 | 10.0 | 0.00 | 0.00 | 0.00 | 45 | 1015.0 |
| 20260506195529 | 73 | 255 | 4.0 | 10.0 | 0.00 | 0.00 | 0.00 | 44 | 1014.9 |
| 20260506195018 | 72 | 211 | 2.0 | 5.0 | 0.00 | 0.00 | 0.00 | 44 | 1015.0 |
| 20260506194535 | 72 | 203 | 0.0 | 4.0 | 0.00 | 0.00 | 0.00 | 44 | 1015.1 |
| 20260506194027 | 71 | 190 | 1.0 | 5.0 | 0.00 | 0.00 | 0.00 | 45 | 1015.2 |
| 20260506193538 | 73 | 159 | 1.0 | 5.0 | 0.00 | 0.00 | 0.00 | 44 | 1015.2 |
| 20260506193031 | 72 | 325 | 1.0 | 4.0 | 0.00 | 0.00 | 0.00 | 45 | 1015.3 |
| 20260506192521 | 72 | 163 | 0.0 | 6.0 | 0.00 | 0.00 | 0.00 | 45 | 1015.6 |
| 20260506192030 | 70 | 180 | 1.0 | 5.0 | 0.00 | 0.00 | 0.00 | 52 | 1015.7 |
| 20260506191526 | 69 | 175 | 3.0 | 5.0 | 0.00 | 0.00 | 0.00 | 54 | 1015.7 |
| 20260506191034 | 69 | 301 | 1.0 | 6.0 | 0.00 | 0.00 | 0.00 | 51 | 1016.0 |
| 20260506190525 | 69 | 336 | 2.0 | 8.0 | 0.00 | 0.00 | 0.00 | 52 | 1015.7 |
| 20260506190022 | 68 | 275 | 2.0 | 8.0 | 0.00 | 0.00 | 0.00 | 54 | 1015.8 |
| 20260506185532 | 68 | 154 | 2.0 | 7.0 | 0.00 | 0.00 | 0.00 | 53 | 1015.8 |
| 20260506185022 | 67 | 307 | 2.0 | 5.0 | 0.00 | 0.00 | 0.00 | 51 | 1015.7 |
| 20260506184548 | 68 | 315 | 1.0 | 5.0 | 0.00 | 0.00 | 0.00 | 51 | 1015.7 |
| 20260506184026 | 67 | 243 | 1.0 | 5.0 | 0.00 | 0.00 | 0.00 | 52 | 1015.8 |
| 20260506183537 | 67 | 360 | 1.0 | 4.0 | 0.00 | 0.00 | 0.00 | 51 | 1015.8 |
| 20260506183047 | 67 | 334 | 1.0 | 4.0 | 0.00 | 0.00 | 0.00 | 51 | 1015.9 |
| 20260506182523 | 67 | 347 | 1.0 | 5.0 | 0.00 | 0.00 | 0.00 | 48 | 1015.9 |
| 20260506182032 | 67 | 40 | 2.0 | 5.0 | 0.00 | 0.00 | 0.00 | 47 | 1016.1 |
| 20260506181548 | 67 | 290 | 1.0 | 4.0 | 0.00 | 0.00 | 0.00 | 47 | 1016.1 |
| 20260506181021 | 67 | 19 | 0.0 | 3.0 | 0.00 | 0.00 | 0.00 | 46 | 1016.2 |
| 20260506180531 | 66 | 231 | 0.0 | 5.0 | 0.00 | 0.00 | 0.00 | 47 | 1016.2 |
| 20260506180029 | 66 | 297 | 1.0 | 5.0 | 0.00 | 0.00 | 0.00 | 47 | 1016.3 |
| 20260506175520 | 66 | 53 | 1.0 | 4.0 | 0.00 | 0.00 | 0.00 | 45 | 1016.3 |
| 20260506175029 | 66 | 273 | 1.0 | 4.0 | 0.00 | 0.00 | 0.00 | 44 | 1016.3 |
| 20260506174528 | 66 | 277 | 0.0 | 3.0 | 0.00 | 0.00 | 0.00 | 44 | 1016.4 |
| 20260506174034 | 66 | 331 | 0.0 | 3.0 | 0.00 | 0.00 | 0.00 | 44 | 1016.5 |
| 20260506173528 | 66 | 251 | 0.0 | 5.0 | 0.00 | 0.00 | 0.00 | 43 | 1016.6 |
| 20260506173024 | 66 | 209 | 1.0 | 5.0 | 0.00 | 0.00 | 0.00 | 43 | 1016.7 |
| 20260506172531 | 65 | 118 | 0.0 | 3.0 | 0.00 | 0.00 | 0.00 | 44 | 1016.8 |
| 20260506172021 | 65 | 320 | 0.0 | 3.0 | 0.00 | 0.00 | 0.00 | 44 | 1016.9 |
| 20260506171538 | 64 | 117 | 1.0 | 3.0 | 0.00 | 0.00 | 0.00 | 43 | 1016.8 |
| 20260506171029 | 63 | 188 | 0.0 | 2.0 | 0.00 | 0.00 | 0.00 | 47 | 1016.9 |
| 20260506170537 | 62 | 150 | 0.0 | 2.0 | 0.00 | 0.00 | 0.00 | 49 | 1016.9 |
| 20260506170038 | 62 | 144 | 0.0 | 3.0 | 0.00 | 0.00 | 0.00 | 50 | 1016.9 |
| 20260506165520 | 62 | 132 | 0.0 | 3.0 | 0.00 | 0.00 | 0.00 | 49 | 1016.9 |
| 20260506165035 | 62 | 143 | 0.0 | 2.0 | 0.00 | 0.00 | 0.00 | 47 | 1017.1 |
| 20260506164536 | 61 | 174 | 0.0 | 1.0 | 0.00 | 0.00 | 0.00 | 46 | 1017.2 |
| 20260506164022 | 61 | 148 | 0.0 | 1.0 | 0.00 | 0.00 | 0.00 | 51 | 1017.2 |
| 20260506163530 | 60 | 134 | 0.0 | 1.0 | 0.00 | 0.00 | 0.00 | 51 | 1017.3 |
| 20260506163029 | 60 | 121 | 0.0 | 1.0 | 0.00 | 0.00 | 0.00 | 51 | 1017.2 |
| 20260506162537 | 59 | 105 | 0.0 | 1.0 | 0.00 | 0.00 | 0.00 | 52 | 1017.1 |
| 20260506162026 | 59 | 92 | 0.0 | 2.0 | 0.00 | 0.00 | 0.00 | 54 | 1017.2 |
| 20260506161522 | 58 | 161 | 0.0 | 3.0 | 0.00 | 0.00 | 0.00 | 57 | 1017.2 |
| 20260506161031 | 58 | 141 | 0.0 | 3.0 | 0.00 | 0.00 | 0.00 | 58 | 1017.2 |
| 20260506160521 | 57 | 138 | 0.0 | 1.0 | 0.00 | 0.00 | 0.00 | 57 | 1017.2 |
| 20260506160037 | 57 | 70 | 0.0 | 1.0 | 0.00 | 0.00 | 0.00 | 57 | 1017.1 |
| 20260506155527 | 56 | 111 | 0.0 | 2.0 | 0.00 | 0.00 | 0.00 | 60 | 1017.1 |
| 20260506155035 | 56 | 87 | 0.0 | 1.0 | 0.00 | 0.00 | 0.00 | 63 | 1017.0 |
| 20260506154532 | 56 | 67 | 0.0 | 2.0 | 0.00 | 0.00 | 0.00 | 64 | 1017.0 |
| 20260506154027 | 55 | 237 | 0.0 | 2.0 | 0.00 | 0.00 | 0.00 | 62 | 1017.1 |
| 20260506153534 | 55 | 49 | 0.0 | 2.0 | 0.00 | 0.00 | 0.00 | 65 | 1017.1 |
| 20260506153036 | 54 | 140 | 0.0 | 1.0 | 0.00 | 0.00 | 0.00 | 67 | 1017.1 |
| 20260506152521 | 54 | 119 | 0.0 | 2.0 | 0.00 | 0.00 | 0.00 | 68 | 1017.1 |
| 20260506152033 | 54 | 209 | 0.0 | 2.0 | 0.00 | 0.00 | 0.00 | 71 | 1017.2 |
| 20260506151530 | 54 | 139 | 0.0 | 1.0 | 0.00 | 0.00 | 0.00 | 70 | 1017.2 |
| 20260506151022 | 54 | 93 | 0.0 | 1.0 | 0.00 | 0.00 | 0.00 | 70 | 1017.3 |
| 20260506150530 | 53 | 327 | 0.0 | 2.0 | 0.00 | 0.00 | 0.00 | 70 | 1017.3 |
| 20260506150029 | 53 | 140 | 0.0 | 0.0 | 0.00 | 0.00 | 0.00 | 69 | 1017.3 |
| 20260506145538 | 53 | 115 | 0.0 | 1.0 | 0.00 | 0.00 | 0.00 | 70 | 1017.3 |
| 20260506145028 | 53 | 155 | 0.0 | 3.0 | 0.00 | 0.00 | 0.00 | 70 | 1017.1 |
| 20260506144525 | 53 | 194 | 0.0 | 3.0 | 0.00 | 0.00 | 0.00 | 71 | 1017.3 |
| 20260506144032 | 53 | 177 | 0.0 | 2.0 | 0.00 | 0.00 | 0.00 | 70 | 1017.3 |
| 20260506143525 | 52 | 244 | 0.0 | 3.0 | 0.00 | 0.00 | 0.00 | 71 | 1017.3 |
| 20260506143023 | 52 | 180 | 0.0 | 3.0 | 0.00 | 0.00 | 0.00 | 71 | 1017.3 |
| 20260506142529 | 52 | 94 | 0.0 | 2.0 | 0.00 | 0.00 | 0.00 | 72 | 1017.3 |
| 20260506142020 | 52 | 256 | 0.0 | 1.0 | 0.00 | 0.00 | 0.00 | 73 | 1017.3 |
| 20260506141537 | 52 | 15 | 0.0 | 0.0 | 0.00 | 0.00 | 0.00 | 73 | 1017.3 |
| 20260506141028 | 52 | 325 | 0.0 | 1.0 | 0.00 | 0.00 | 0.00 | 74 | 1017.2 |
| 20260506140541 | 52 | 306 | 0.0 | 1.0 | 0.00 | 0.00 | 0.00 | 73 | 1017.4 |
| 20260506140030 | 51 | 329 | 0.0 | 0.0 | 0.00 | 0.00 | 0.00 | 73 | 1017.4 |
| 20260506135520 | 51 | 314 | 0.0 | 2.0 | 0.00 | 0.00 | 0.00 | 73 | 1017.3 |
| 20260506135028 | 51 | 101 | 0.0 | 2.0 | 0.00 | 0.00 | 0.00 | 73 | 1017.3 |
| 20260506134528 | 50 | 85 | 0.0 | 2.0 | 0.00 | 0.00 | 0.00 | 75 | 1017.3 |
| 20260506134041 | 50 | 142 | 0.0 | 3.0 | 0.00 | 0.00 | 0.00 | 76 | 1017.3 |
| 20260506133525 | 50 | 104 | 0.0 | 2.0 | 0.00 | 0.00 | 0.00 | 79 | 1017.4 |
| 20260506133024 | 49 | 105 | 0.0 | 2.0 | 0.00 | 0.00 | 0.00 | 82 | 1017.3 |
| 20260506132518 | 47 | 103 | 0.0 | 4.0 | 0.00 | 0.00 | 0.00 | 85 | 1017.2 |
| 20260506132028 | 46 | 194 | 2.0 | 4.0 | 0.00 | 0.00 | 0.00 | 86 | 1017.2 |
| 20260506131534 | 46 | 213 | 1.0 | 4.0 | 0.00 | 0.00 | 0.00 | 87 | 1017.1 |
| 20260506131034 | 45 | 271 | 0.0 | 4.0 | 0.00 | 0.00 | 0.00 | 87 | 1017.1 |
| 20260506130526 | 45 | 245 | 2.0 | 4.0 | 0.00 | 0.00 | 0.00 | 87 | 1017.1 |
| 20260506130022 | 45 | 234 | 0.0 | 2.0 | 0.00 | 0.00 | 0.00 | 88 | 1017.1 |
| 20260506125530 | 45 | 242 | 0.0 | 0.0 | 0.00 | 0.00 | 0.00 | 88 | 1017.0 |
| 20260506125020 | 45 | 237 | 0.0 | 0.0 | 0.00 | 0.00 | 0.00 | 88 | 1017.0 |
| 20260506124518 | 45 | 264 | 0.0 | 3.0 | 0.00 | 0.00 | 0.00 | 88 | 1017.0 |
| 20260506124030 | 45 | 272 | 0.0 | 3.0 | 0.00 | 0.00 | 0.00 | 89 | 1016.9 |
| 20260506123538 | 45 | 251 | 0.0 | 3.0 | 0.00 | 0.00 | 0.00 | 88 | 1016.9 |
| 20260506123034 | 45 | 211 | 0.0 | 3.0 | 0.00 | 0.00 | 0.00 | 87 | 1016.9 |
| 20260506122524 | 45 | 245 | 0.0 | 3.0 | 0.00 | 0.00 | 0.00 | 88 | 1016.8 |
| 20260506122031 | 46 | 240 | 2.0 | 4.0 | 0.00 | 0.00 | 0.00 | 87 | 1016.7 |
| 20260506121527 | 46 | 246 | 0.0 | 4.0 | 0.00 | 0.00 | 0.00 | 88 | 1016.7 |
| 20260506121024 | 46 | 234 | 1.0 | 3.0 | 0.00 | 0.00 | 0.00 | 88 | 1016.7 |
| 20260506120534 | 46 | 248 | 1.0 | 3.0 | 0.00 | 0.00 | 0.00 | 89 | 1016.7 |
| 20260506120028 | 46 | 229 | 0.0 | 1.0 | 0.00 | 0.00 | 0.00 | 89 | 1016.6 |
| 20260506115536 | 46 | 242 | 0.0 | 4.0 | 0.00 | 0.00 | 0.00 | 88 | 1016.6 |
| 20260506115026 | 46 | 219 | 1.0 | 4.0 | 0.00 | 0.00 | 0.00 | 88 | 1016.6 |
| 20260506114527 | 46 | 242 | 2.0 | 4.0 | 0.00 | 0.00 | 0.00 | 88 | 1016.7 |
| 20260506114035 | 46 | 238 | 0.0 | 4.0 | 0.00 | 0.00 | 0.00 | 88 | 1016.7 |
| 20260506113523 | 46 | 236 | 2.0 | 4.0 | 0.00 | 0.00 | 0.00 | 88 | 1016.6 |
| 20260506113033 | 46 | 234 | 1.0 | 5.0 | 0.00 | 0.00 | 0.00 | 87 | 1016.8 |
| 20260506112527 | 46 | 238 | 2.0 | 5.0 | 0.00 | 0.00 | 0.00 | 87 | 1016.8 |
| 20260506112019 | 46 | 232 | 2.0 | 4.0 | 0.00 | 0.00 | 0.00 | 86 | 1016.7 |
| 20260506111535 | 46 | 222 | 2.0 | 4.0 | 0.00 | 0.00 | 0.00 | 86 | 1016.8 |
| 20260506111026 | 46 | 221 | 0.0 | 3.0 | 0.00 | 0.00 | 0.00 | 85 | 1016.7 |
| 20260506110520 | 46 | 265 | 2.0 | 3.0 | 0.00 | 0.00 | 0.00 | 86 | 1016.7 |
| 20260506110036 | 46 | 232 | 1.0 | 4.0 | 0.00 | 0.00 | 0.00 | 86 | 1016.7 |
| 20260506105527 | 46 | 238 | 2.0 | 5.0 | 0.00 | 0.00 | 0.00 | 86 | 1016.7 |
| 20260506105037 | 46 | 246 | 1.0 | 5.0 | 0.00 | 0.00 | 0.00 | 85 | 1016.7 |
| 20260506104535 | 47 | 258 | 2.0 | 5.0 | 0.00 | 0.00 | 0.00 | 85 | 1016.7 |
| 20260506104022 | 47 | 236 | 0.0 | 5.0 | 0.00 | 0.00 | 0.00 | 86 | 1016.7 |
| 20260506103536 | 47 | 232 | 1.0 | 4.0 | 0.00 | 0.00 | 0.00 | 86 | 1016.6 |
| 20260506103031 | 47 | 235 | 1.0 | 3.0 | 0.00 | 0.00 | 0.00 | 86 | 1016.5 |
| 20260506102521 | 47 | 246 | 1.0 | 3.0 | 0.00 | 0.00 | 0.00 | 85 | 1016.6 |
| 20260506102030 | 47 | 234 | 1.0 | 3.0 | 0.00 | 0.00 | 0.00 | 85 | 1016.6 |
| 20260506101528 | 48 | 224 | 1.0 | 3.0 | 0.00 | 0.00 | 0.00 | 84 | 1016.7 |
| 20260506101019 | 48 | 258 | 0.0 | 3.0 | 0.00 | 0.00 | 0.00 | 85 | 1016.6 |
| 20260506100628 | 47 | 232 | 0.0 | 4.0 | 0.00 | 0.00 | 0.00 | 84 | 1016.6 |
| 20260506100024 | 48 | 210 | 2.0 | 5.0 | 0.00 | 0.00 | 0.00 | 81 | 1016.5 |
| 20260506095538 | 48 | 252 | 2.0 | 5.0 | 0.00 | 0.00 | 0.00 | 80 | 1016.5 |
| 20260506095027 | 49 | 215 | 1.0 | 4.0 | 0.00 | 0.00 | 0.00 | 81 | 1016.6 |
| 20260506094524 | 48 | 232 | 2.0 | 4.0 | 0.00 | 0.00 | 0.00 | 81 | 1016.6 |
| 20260506094038 | 48 | 234 | 1.0 | 3.0 | 0.00 | 0.00 | 0.00 | 81 | 1016.5 |
| 20260506093523 | 48 | 250 | 0.0 | 3.0 | 0.00 | 0.00 | 0.00 | 82 | 1016.5 |
| 20260506093020 | 48 | 232 | 1.0 | 3.0 | 0.00 | 0.00 | 0.00 | 82 | 1016.5 |
| 20260506092536 | 48 | 245 | 1.0 | 3.0 | 0.00 | 0.00 | 0.00 | 81 | 1016.5 |
| 20260506092020 | 48 | 242 | 1.0 | 3.0 | 0.00 | 0.00 | 0.00 | 82 | 1016.5 |
| 20260506091546 | 48 | 240 | 1.0 | 4.0 | 0.00 | 0.00 | 0.00 | 82 | 1016.4 |
| 20260506091027 | 49 | 252 | 2.0 | 4.0 | 0.00 | 0.00 | 0.00 | 82 | 1016.4 |
| 20260506090537 | 49 | 231 | 1.0 | 4.0 | 0.00 | 0.00 | 0.00 | 83 | 1016.4 |
| 20260506090033 | 49 | 240 | 0.0 | 3.0 | 0.00 | 0.00 | 0.00 | 82 | 1016.5 |
| 20260506085524 | 49 | 248 | 0.0 | 0.0 | 0.00 | 0.00 | 0.00 | 81 | 1016.4 |
| 20260506085034 | 49 | 234 | 0.0 | 0.0 | 0.00 | 0.00 | 0.00 | 80 | 1016.4 |
| 20260506084535 | 50 | 45 | 0.0 | 0.0 | 0.00 | 0.00 | 0.00 | 79 | 1016.3 |
| 20260506084024 | 50 | 252 | 0.0 | 0.0 | 0.00 | 0.00 | 0.00 | 78 | 1016.4 |
| 20260506083536 | 50 | 257 | 0.0 | 0.0 | 0.00 | 0.00 | 0.00 | 78 | 1016.4 |
| 20260506083033 | 49 | 255 | 0.0 | 0.0 | 0.00 | 0.00 | 0.00 | 78 | 1016.2 |
| 20260506082517 | 49 | 285 | 0.0 | 4.0 | 0.00 | 0.00 | 0.00 | 78 | 1016.3 |
| 20260506082028 | 49 | 288 | 0.0 | 8.0 | 0.00 | 0.00 | 0.00 | 77 | 1016.2 |
| 20260506081525 | 49 | 227 | 3.0 | 8.0 | 0.00 | 0.00 | 0.00 | 78 | 1016.3 |
| 20260506081037 | 49 | 246 | 3.0 | 8.0 | 0.00 | 0.00 | 0.00 | 78 | 1016.1 |
| 20260506080525 | 49 | 246 | 3.0 | 6.0 | 0.00 | 0.00 | 0.00 | 77 | 1016.0 |
| 20260506073520 | 50 | 186 | 3.0 | 5.0 | 0.00 | 0.00 | 0.00 | 78 | 1015.8 |
| 20260506073035 | 50 | 231 | 2.0 | 5.0 | 0.00 | 0.00 | 0.00 | 77 | 1015.8 |
| 20260506072529 | 51 | 215 | 2.0 | 5.0 | 0.00 | 0.00 | 0.00 | 77 | 1015.8 |
| 20260506072035 | 51 | 234 | 0.0 | 4.0 | 0.00 | 0.00 | 0.00 | 78 | 1015.8 |
| 20260506071531 | 51 | 234 | 0.0 | 4.0 | 0.00 | 0.00 | 0.00 | 76 | 1015.7 |
| 20260506071021 | 51 | 219 | 1.0 | 4.0 | 0.00 | 0.00 | 0.00 | 76 | 1015.8 |
| 20260506070531 | 50 | 211 | 1.0 | 4.0 | 0.00 | 0.00 | 0.00 | 75 | 1015.8 |
| 20260506062025 | 52 | 245 | 2.0 | 5.0 | 0.00 | 0.00 | 0.00 | 74 | 1015.3 |
| 20260506061518 | 52 | 248 | 3.0 | 5.0 | 0.00 | 0.00 | 0.00 | 74 | 1015.3 |
| 20260506061030 | 52 | 244 | 2.0 | 5.0 | 0.00 | 0.00 | 0.00 | 74 | 1015.2 |
| 20260506060536 | 53 | 242 | 2.0 | 5.0 | 0.00 | 0.00 | 0.00 | 73 | 1015.2 |
| 20260506051034 | 54 | 252 | 2.0 | 4.0 | 0.00 | 0.00 | 0.00 | 71 | 1014.5 |
| 20260506050523 | 55 | 176 | 2.0 | 4.0 | 0.00 | 0.00 | 0.00 | 68 | 1014.5 |
| 20260506045037 | 55 | 243 | 1.0 | 4.0 | 0.00 | 0.00 | 0.00 | 67 | 1014.5 |
| 20260506044533 | 56 | 238 | 2.0 | 4.0 | 0.00 | 0.00 | 0.00 | 65 | 1014.4 |
| 20260506044024 | 57 | 242 | 1.0 | 4.0 | 0.00 | 0.00 | 0.00 | 66 | 1014.4 |
| 20260506043534 | 57 | 233 | 2.0 | 4.0 | 0.00 | 0.00 | 0.00 | 64 | 1014.5 |
| 20260506043029 | 57 | 238 | 1.0 | 4.0 | 0.00 | 0.00 | 0.00 | 62 | 1014.5 |
| 20260506042538 | 57 | 192 | 2.0 | 7.0 | 0.00 | 0.00 | 0.00 | 63 | 1014.6 |
| 20260506042028 | 57 | 267 | 2.0 | 7.0 | 0.00 | 0.00 | 0.00 | 64 | 1014.4 |
| 20260506041525 | 57 | 225 | 2.0 | 5.0 | 0.00 | 0.00 | 0.00 | 62 | 1014.5 |
| 20260506041036 | 57 | 238 | 3.0 | 6.0 | 0.00 | 0.00 | 0.00 | 63 | 1014.3 |
| 20260506040524 | 57 | 254 | 3.0 | 6.0 | 0.00 | 0.00 | 0.00 | 65 | 1014.3 |
| 20260506040024 | 58 | 237 | 3.0 | 6.0 | 0.00 | 0.00 | 0.00 | 62 | 1014.2 |
| 20260506035530 | 59 | 220 | 1.0 | 6.0 | 0.00 | 0.00 | 0.00 | 55 | 1014.0 |
| 20260506035018 | 59 | 251 | 4.0 | 7.0 | 0.00 | 0.00 | 0.00 | 53 | 1014.0 |
| 20260506034537 | 59 | 232 | 1.0 | 4.0 | 0.00 | 0.00 | 0.00 | 60 | 1014.0 |
| 20260506034024 | 59 | 248 | 2.0 | 5.0 | 0.00 | 0.00 | 0.00 | 56 | 1013.9 |
| 20260506033534 | 59 | 239 | 2.0 | 5.0 | 0.00 | 0.00 | 0.00 | 57 | 1013.9 |
| 20260506033029 | 61 | 246 | 2.0 | 4.0 | 0.00 | 0.00 | 0.00 | 53 | 1013.9 |
| 20260506032521 | 61 | 251 | 1.0 | 4.0 | 0.00 | 0.00 | 0.00 | 49 | 1013.9 |
| 20260506032028 | 61 | 264 | 2.0 | 3.0 | 0.00 | 0.00 | 0.00 | 53 | 1013.8 |
| 20260506031526 | 61 | 249 | 1.0 | 3.0 | 0.00 | 0.00 | 0.00 | 53 | 1013.7 |
| 20260506031039 | 61 | 234 | 1.0 | 3.0 | 0.00 | 0.00 | 0.00 | 52 | 1013.7 |
| 20260506030532 | 62 | 261 | 1.0 | 3.0 | 0.00 | 0.00 | 0.00 | 52 | 1013.7 |
| 20260506030036 | 62 | 250 | 1.0 | 3.0 | 0.00 | 0.00 | 0.00 | 52 | 1013.6 |
| 20260506025539 | 63 | 258 | 2.0 | 3.0 | 0.00 | 0.00 | 0.00 | 50 | 1013.7 |
| 20260506025027 | 64 | 261 | 2.0 | 3.0 | 0.00 | 0.00 | 0.00 | 51 | 1013.7 |
| 20260506024546 | 65 | 267 | 2.0 | 3.0 | 0.00 | 0.00 | 0.00 | 42 | 1013.7 |
| 20260506024033 | 66 | 254 | 1.0 | 3.0 | 0.00 | 0.00 | 0.00 | 37 | 1013.7 |
| 20260506023522 | 68 | 248 | 1.0 | 3.0 | 0.00 | 0.00 | 0.00 | 38 | 1013.7 |
| 20260506023020 | 69 | 312 | 1.0 | 3.0 | 0.00 | 0.00 | 0.00 | 29 | 1013.6 |
| 20260506022534 | 69 | 312 | 1.0 | 3.0 | 0.00 | 0.00 | 0.00 | 28 | 1013.5 |
| 20260506022021 | 69 | 309 | 2.0 | 4.0 | 0.00 | 0.00 | 0.00 | 28 | 1013.6 |
| 20260506021519 | 69 | 300 | 2.0 | 4.0 | 0.00 | 0.00 | 0.00 | 28 | 1013.5 |
| 20260506021028 | 69 | 294 | 2.0 | 4.0 | 0.00 | 0.00 | 0.00 | 29 | 1013.4 |
| 20260506020518 | 70 | 310 | 2.0 | 6.0 | 0.00 | 0.00 | 0.00 | 28 | 1013.4 |
| 20260506020034 | 70 | 9 | 3.0 | 6.0 | 0.00 | 0.00 | 0.00 | 28 | 1013.5 |
| 20260506015529 | 70 | 5 | 3.0 | 5.0 | 0.00 | 0.00 | 0.00 | 27 | 1013.5 |
| 20260506015036 | 70 | 56 | 2.0 | 5.0 | 0.00 | 0.00 | 0.00 | 28 | 1013.6 |
| 20260506014533 | 70 | 304 | 3.0 | 4.0 | 0.00 | 0.00 | 0.00 | 27 | 1013.5 |
| 20260506014020 | 70 | 312 | 2.0 | 3.0 | 0.00 | 0.00 | 0.00 | 28 | 1013.5 |
| 20260506013531 | 71 | 304 | 1.0 | 4.0 | 0.00 | 0.00 | 0.00 | 27 | 1013.5 |
| 20260506013039 | 71 | 50 | 2.0 | 6.0 | 0.00 | 0.00 | 0.00 | 26 | 1013.5 |
| 20260506012518 | 71 | 48 | 4.0 | 10.0 | 0.00 | 0.00 | 0.00 | 25 | 1013.4 |
| 20260506012028 | 71 | 38 | 5.0 | 10.0 | 0.00 | 0.00 | 0.00 | 26 | 1013.4 |
| 20260506011523 | 71 | 28 | 3.0 | 10.0 | 0.00 | 0.00 | 0.00 | 26 | 1013.4 |
| 20260506011034 | 71 | 49 | 6.0 | 11.0 | 0.00 | 0.00 | 0.00 | 25 | 1013.4 |
| 20260506010523 | 71 | 331 | 4.0 | 9.0 | 0.00 | 0.00 | 0.00 | 26 | 1013.4 |
| 20260506010024 | 72 | 355 | 3.0 | 9.0 | 0.00 | 0.00 | 0.00 | 25 | 1013.4 |
| 20260506005530 | 72 | 12 | 5.0 | 10.0 | 0.00 | 0.00 | 0.00 | 25 | 1013.4 |
| 20260506005022 | 71 | 37 | 5.0 | 10.0 | 0.00 | 0.00 | 0.00 | 25 | 1013.5 |
| 20260506004521 | 71 | 5 | 6.0 | 11.0 | 0.00 | 0.00 | 0.00 | 24 | 1013.5 |
| 20260506004029 | 72 | 25 | 5.0 | 11.0 | 0.00 | 0.00 | 0.00 | 25 | 1013.6 |
| 20260506003518 | 72 | 51 | 2.0 | 6.0 | 0.00 | 0.00 | 0.00 | 25 | 1013.7 |
| 20260506003036 | 71 | 21 | 2.0 | 12.0 | 0.00 | 0.00 | 0.00 | 25 | 1013.7 |
| 20260506002527 | 71 | 309 | 5.0 | 12.0 | 0.00 | 0.00 | 0.00 | 25 | 1013.8 |
| 20260506002037 | 72 | 28 | 5.0 | 14.0 | 0.00 | 0.00 | 0.00 | 24 | 1013.9 |
| 20260506001537 | 72 | 52 | 5.0 | 16.0 | 0.00 | 0.00 | 0.00 | 24 | 1013.9 |
| 20260506001022 | 72 | 60 | 7.0 | 16.0 | 0.00 | 0.00 | 0.00 | 25 | 1014.0 |
| 20260506000531 | 72 | 360 | 6.0 | 16.0 | 0.00 | 0.00 | 0.00 | 24 | 1014.0 |
| 20260506000025 | 72 | 11 | 5.0 | 16.0 | 0.00 | 0.00 | 0.00 | 24 | 1014.1 |
| 20260505235533 | 72 | 57 | 2.0 | 10.0 | 0.00 | 0.00 | 0.00 | 25 | 1014.1 |
| 20260505235026 | 71 | 26 | 6.0 | 12.0 | 0.00 | 0.00 | 0.00 | 25 | 1014.2 |
| 20260505234529 | 72 | 34 | 7.0 | 12.0 | 0.00 | 0.00 | 0.00 | 24 | 1014.2 |
| 20260505234030 | 72 | 65 | 5.0 | 12.0 | 0.00 | 0.00 | 0.00 | 23 | 1014.2 |
| 20260505233526 | 72 | 24 | 4.0 | 12.0 | 0.00 | 0.00 | 0.00 | 25 | 1014.2 |
| 20260505233021 | 71 | 5 | 4.0 | 12.0 | 0.00 | 0.00 | 0.00 | 24 | 1014.0 |
| 20260505232531 | 71 | 360 | 3.0 | 10.0 | 0.00 | 0.00 | 0.00 | 25 | 1014.1 |
| 20260505232020 | 71 | 82 | 4.0 | 17.0 | 0.00 | 0.00 | 0.00 | 23 | 1014.1 |
| 20260505231540 | 72 | 44 | 7.0 | 17.0 | 0.00 | 0.00 | 0.00 | 24 | 1014.3 |
| 20260505231028 | 72 | 36 | 2.0 | 15.0 | 0.00 | 0.00 | 0.00 | 25 | 1014.3 |
| 20260505230535 | 71 | 57 | 6.0 | 15.0 | 0.00 | 0.00 | 0.00 | 25 | 1014.3 |
| 20260505230048 | 71 | 88 | 8.0 | 16.0 | 0.00 | 0.00 | 0.00 | 25 | 1014.4 |
| 20260505225519 | 71 | 32 | 11.0 | 16.0 | 0.00 | 0.00 | 0.00 | 24 | 1014.4 |
| 20260505225030 | 71 | 9 | 7.0 | 15.0 | 0.00 | 0.00 | 0.00 | 25 | 1014.5 |
| 20260505224529 | 72 | 25 | 7.0 | 13.0 | 0.00 | 0.00 | 0.00 | 25 | 1014.5 |
| 20260505224040 | 72 | 355 | 8.0 | 12.0 | 0.00 | 0.00 | 0.00 | 25 | 1014.6 |
| 20260505223526 | 71 | 302 | 4.0 | 12.0 | 0.00 | 0.00 | 0.00 | 25 | 1014.6 |
| 20260505223020 | 71 | 5 | 5.0 | 14.0 | 0.00 | 0.00 | 0.00 | 24 | 1014.7 |
| 20260505222535 | 71 | 360 | 7.0 | 15.0 | 0.00 | 0.00 | 0.00 | 26 | 1014.7 |
| 20260505222024 | 71 | 348 | 6.0 | 15.0 | 0.00 | 0.00 | 0.00 | 26 | 1014.7 |
| 20260505221521 | 71 | 302 | 9.0 | 15.0 | 0.00 | 0.00 | 0.00 | 26 | 1014.6 |
| 20260505221031 | 71 | 355 | 4.0 | 18.0 | 0.00 | 0.00 | 0.00 | 27 | 1014.8 |
| 20260505220520 | 71 | 12 | 12.0 | 18.0 | 0.00 | 0.00 | 0.00 | 25 | 1014.8 |
| 20260505220041 | 71 | 343 | 8.0 | 13.0 | 0.00 | 0.00 | 0.00 | 25 | 1014.7 |
| 20260505215527 | 71 | 14 | 7.0 | 16.0 | 0.00 | 0.00 | 0.00 | 26 | 1014.7 |
| 20260505215035 | 71 | 15 | 9.0 | 16.0 | 0.00 | 0.00 | 0.00 | 26 | 1014.8 |
| 20260505214532 | 71 | 5 | 8.0 | 14.0 | 0.00 | 0.00 | 0.00 | 26 | 1014.8 |
| 20260505214021 | 71 | 326 | 8.0 | 15.0 | 0.00 | 0.00 | 0.00 | 27 | 1014.8 |
| 20260505213530 | 71 | 331 | 6.0 | 15.0 | 0.00 | 0.00 | 0.00 | 28 | 1014.8 |
| 20260505213035 | 71 | 314 | 5.0 | 12.0 | 0.00 | 0.00 | 0.00 | 28 | 1014.9 |
| 20260505212538 | 71 | 13 | 4.0 | 12.0 | 0.00 | 0.00 | 0.00 | 28 | 1015.0 |
| 20260505212030 | 71 | 5 | 4.0 | 15.0 | 0.00 | 0.00 | 0.00 | 29 | 1015.0 |
| 20260505211528 | 70 | 338 | 6.0 | 15.0 | 0.00 | 0.00 | 0.00 | 29 | 1015.1 |
| 20260505211037 | 71 | 360 | 5.0 | 12.0 | 0.00 | 0.00 | 0.00 | 30 | 1015.0 |
| 20260505210526 | 70 | 326 | 5.0 | 12.0 | 0.00 | 0.00 | 0.00 | 29 | 1015.2 |
| 20260505210023 | 71 | 330 | 3.0 | 11.0 | 0.00 | 0.00 | 0.00 | 31 | 1015.1 |
| 20260505205531 | 71 | 5 | 5.0 | 13.0 | 0.00 | 0.00 | 0.00 | 31 | 1015.2 |
| 20260505205021 | 70 | 11 | 7.0 | 13.0 | 0.00 | 0.00 | 0.00 | 30 | 1015.1 |